Content
SEND FEEDBACK

Daily
Averages
Monthly
Summary
Turkmenistan

ASHGABAT, TURKMENISTAN


Home > Asia > Turkmenistan
Elevation: 775 feet     Latitude: 37 58N     Longitude: 058 20E

WEATHER
 
SELECT A DAY
Number of Records: 177,237;   Date Range: 3/15/97 - 7/26/14
 
SHARE

PRINT THIS DATA

[ ← Previous Day ]
WEATHER ALMANAC - JUNE 12, 2013
[ Next Day → ]
[ °C ]   °F
Weather ElementAverageHighLow
Temperature84.1 °F95 °F (3:00 pm)69.8 °F (6:00 am)
Dewpoint41.1 °F52 °F (2:00 am)33.8 °F (9:00 am)
Humidity21.1 %38 % (5:00 am)12 % (3:00 pm)
Barometer29.71 in29.77 in (9:00 am)29.65 in (6:00 pm)
Wind Speed6 mph15.7 mph (10:00 am)
Weather ElementAverage
Visibility6 mi
Wind DirectionWSW (233.5 °)

Weather ElementTotal
Precipitation---
Cooling Degree Days17.4 (Base 65)
Growing Degree Days32.4 (Base 50)
Averaged from 31 records on June 12, 2013
WEATHER CONDITIONS BREAKOUT
WIND DIRECTION BREAKOUT
WEATHER BY HOUR - JUNE 12, 2013
[ °C ]   °F
Local TimeTemperatureDewpointHumidityBarometerVisibilityWind DirectionWind SpeedGust SpeedPrecipitationEventsConditions
1:00 AM77.0 °F41.0 °F28 %29.71 in6.2 miWSW (240°)4.5 mphClear
2:00 AM77.0 °F52.0 °F31 %29.71 in6.0 miWest (260°)2.2 mph
2:00 AM75.2 °F42.8 °F31 %29.71 in5.0 miWSW (250°)4.5 mphClear
3:00 AM73.4 °F44.6 °F36 %29.71 in6.2 miSW (220°)6.7 mphPartly Cloudy
4:00 AM73.4 °F42.8 °F33 %29.71 in6.2 miCalmPartly Cloudy
5:00 AM72.0 °F50.0 °F34 %29.72 in6.0 miSW (220°)4.5 mphPartly Cloudy
5:00 AM71.6 °F44.6 °F38 %29.71 in5.0 miSSW (210°)4.5 mphScattered Clouds
6:00 AM69.8 °F41.0 °F35 %29.74 in6.2 miWSW (240°)4.5 mphScattered Clouds
7:00 AM75.2 °F39.2 °F27 %29.74 in6.2 miWNW (300°)6.7 mphClear
8:00 AM79.0 °F47.0 °F22 %29.73 in6.0 miWNW (300°)4.5 mphScattered Clouds
8:00 AM82.4 °F37.4 °F20 %29.74 in6.2 miWNW (290°)4.5 mphPartly Cloudy
9:00 AM86.0 °F33.8 °F15 %29.77 in6.2 miWNW (300°)8.9 mphScattered Clouds
10:00 AM86.0 °F42.8 °F22 %29.77 in6.2 miWNW (300°)15.7 mphScattered Clouds
11:00 AM88.0 °F45.0 °F13 %29.74 in6.0 miNW (310°)15.7 mphPartly Cloudy
11:00 AM87.8 °F33.8 °F15 %29.77 in6.2 miWNW (300°)15.7 mphMostly Cloudy
12:00 PM89.6 °F39.2 °F17 %29.77 in6.2 miWNW (290°)8.9 mphMostly Cloudy
1:00 PM91.4 °F35.6 °F14 %29.74 in6.2 miNW (310°)4.5 mphMostly Cloudy
2:00 PM92.0 °F50.0 °F15 %29.72 in6.0 miNW (320°)4.5 mphPartly Cloudy
2:00 PM91.4 °F33.8 °F13 %29.74 in6.2 miNorth (360°)4.5 mphOvercast
3:00 PM95.0 °F35.6 °F12 %29.71 in6.2 miNNW (340°)6.7 mphOvercast
4:00 PM93.2 °F37.4 °F14 %29.71 in6.2 miSSW (210°)6.7 mphOvercast
5:00 PM91.0 °F51.0 °F16 %29.66 in6.0 miWSW (250°)6.7 mphRainLight Rain Showers
5:00 PM93.2 °F33.8 °F12 %29.68 in6.2 miWSW (250°)6.7 mphOvercast
6:00 PM93.2 °F33.8 °F12 %29.65 in6.2 miNW (310°)8.9 mphMostly Cloudy
7:00 PM93.2 °F35.6 °F13 %29.65 in6.2 miCalmMostly Cloudy
8:00 PM92.0 °F47.0 °F13 %29.65 in6.0 miWest (270°)4.5 mphPartly Cloudy
8:00 PM91.4 °F35.6 °F14 %29.68 in6.2 miVariable2.2 mphMostly Cloudy
9:00 PM84.2 °F41.0 °F22 %29.68 in6.2 miVariable2.2 mphMostly Cloudy
10:00 PM82.4 °F41.0 °F23 %29.71 in6.2 miSSW (210°)6.7 mphMostly Cloudy
11:00 PM80.0 °F45.0 °F19 %29.69 in6.0 miSouth (190°)4.5 mphScattered Clouds
11:00 PM78.8 °F41.0 °F26 %29.71 in5.0 miSouth (190°)4.5 mphScattered Clouds
Hourly data recorded from UTAA, located miles away from Ashgabat, Turkmenistan







STORIES FROM OUR PARTNERS